Location: Lake Almanor
(40.2485°N, 121.1442°W)
Time: 02:34:38
(UTC-08:00)

STARLINK-1066 - Pass Details

Date: 03 February 2020
Orbit: 349 x 350 km, 53.0° (Epoch: 18 February)

Event Time Altitude Azimuth Distance (km) Brightness Sun altitude
Rises 17:51:11 0° 306° (NW) 2,160 7.2 -5.5°
Reaches altitude 10° 17:53:12 10° 303° (WNW) 1,314 6.2 -5.9°
Maximum altitude 17:56:06 61° 222° (SW) 400 3.3 -6.4°
Drops below altitude 10° 17:58:59 10° 141° (SE) 1,306 5.3 -6.9°
Sets 18:00:59 0° 138° (SE) 2,144 6.4 -7.3°
